STARLINK-4191 (52860 NORAD) Tracking and Keplerian Element Data

This shows tracking and keplerian element data for the satellite.

Feedback or suggestion? Click here.




ElementValue
Catalog52860
NameSTARLINK-4191
Epoch Orbit1628
Epoch Day270.25001157
Epoch Year2022
RAAN277.9597
Inclination53.2143
Eccentricity0.0002044
Argument of Perigee43.0194
Mean Anonmoly250.3773
Mean Motion15.08829559
Decay Rate-0.00016816
L11 52860U 22062AG 22270.25001157 -.00016816 00000+0 -10412-2 0 9990
L22 52860 53.2143 277.9597 0002044 43.0194 250.3773 15.08829559 16284

Live tracking and technical data element details for STARLINK-4191 (NORAD 52860). STARLINK-4191 can be tracked NOW for your location showing map with azimuth and elevation plus other details from your city location.

Track the satellite on the map from your city or location and see movement details for azimuth, elevation, latitude, longitude, range, height, and movement on the map or in text.







IsCatalogInMostPopularTable: catalog: 52860, numindb: 6
Update: records affected: 1



GetName: 52860 STARLINK-4191

Hit Count: updated at: Thu, 06 Oct 2022 05:18:12 GMT